Regional Weather Roundup
Issued by NWS

Home | Current Version | Previous Version | Graphics & Text | Print | Product List | Glossary On
Versions: 1 2 3 4 5 6 7 8 9 10 11 12 13 14 15 16 17 18 19 20 21 22 23 24 25 26 27 28 29 30 31 32 33 34 35 36 37 38 39 40 41 42 43 44 45 46 47 48 49 50
000
ASUS43 KLMK 281010
RWRKY
SDFRWRKY ALL
KENTUCKY REGIONAL WEATHER ROUNDUP
NATIONAL WEATHER SERVICE LOUISVILLE KY
500 AM EST FRI NOV 28 2014

NOTE "FAIR" INDICATES FEW OR NO CLOUDS BELOW 12,000 FEET
WITH NO SIGNIFICANT WEATHER AND/OR OBSTRUCTIONS TO VISIBILITY.

KYZ001>023-026-027-061>063-070>075-281100-
WESTERN AND SOUTH CENTRAL KENTUCKY

CITY           SKY/WX    TMP DP  RH WIND       PRES   REMARKS
PADUCAH        PTCLDY    27  24  89 SE3       30.42S
HENDERSON      MOCLDY    27  21  80 CALM      30.43F
OWENSBORO      CLOUDY    26  23  88 MISG      30.44F
HOPKINSVILLE   CLOUDY    26  25  94 S3        30.43F
BOWLING GREEN  CLOUDY    26  20  77 CALM      30.45S
GLASGOW        MOCLDY    24  21  91 CALM      30.44R
$$

KYZ024-025-028>034-038-045-046-053-281100-
NORTH CENTRAL KENTUCKY

CITY           SKY/WX    TMP DP  RH WIND       PRES   REMARKS
LOUISVILLE/SDF MOCLDY    26  19  74 W5        30.43R WCI  20
LOUISVILLE/LOU CLEAR     25  19  78 W3        30.44R
FORT KNOX      CLOUDY    21  18  89 CALM      30.41R
$$

KYZ035>037-039>044-047>052-055>060-089>105-281100-
NORTHEAST KENTUCKY

CITY           SKY/WX    TMP DP  RH WIND       PRES   REMARKS
LEXINGTON      PTCLDY    24  18  77 W5        30.39F WCI  18
COVINGTON      CLOUDY    27  17  66 CALM      30.38S
FRANKFORT      CLOUDY    26  20  77 W5        30.40S WCI  20
$$

KYZ054-064>069-076>088-106>120-281100-
SOUTHEAST KENTUCKY

CITY           SKY/WX    TMP DP  RH WIND       PRES   REMARKS
JACKSON        CLOUDY    27  16  63 CALM      30.36R
LONDON         CLOUDY    26  16  65 NW3       30.39S
SOMERSET       PTCLDY    25  18  74 CALM      30.41F
MIDDLESBORO    NOT AVBL
MONTICELLO     CLOUDY    27  19  71 CALM      30.43F
$$



USA.gov is the U.S. government's official web portal to all federal, state and local government web resources and services.